SCP
0 0 0 0 0 0 0 0 1 1 1 1 1 2 4 4 3 2 5 8 8 7 6 5 5 6 8 9 9 9 9 8 7 7 7 7 6 6 6 6 7 7 6 6
0 0 0 0 0 0 0 0 1 1 1 1 1 2 4 4 3 3 5 8 9 7 6 5 4 6 8 9 9 9 9 9 8 7 7 6 6 6 6 6 7 7 6 5
0 0 0 0 0 0 0 0 0 1 1 1 1 3 3 3 3 3 6 8 9 8 6 5 4 6 8 9 9 9 10 9 8 7 7 6 5 5 5 6 7 7 6 5
0 0 0 0 0 0 0 0 0 0 0 1 1 2 2 3 3 3 5 7 7 6 6 4 4 6 8 9 9 10 10 10 8 7 6 5 4 4 5 6 7 6 5 4
0 0 0 0 0 0 0 0 0 0 1 1 1 1 1 2 2 3 4 5 4 4 4 5 5 7 8 9 9 9 9 9 7 6 5 5 4 4 5 6 6 6 5 4
0 0 0 0 0 0 0 0 0 0 1 1 1 1 1 1 2 2 3 3 3 4 4 5 5 6 7 8 9 9 8 7 6 6 5 4 4 5 6 7 7 7 6 5
0 0 0 0 0 0 0 0 0 0 0 0 0 1 1 1 2 2 3 3 4 4 4 4 5 5 5 6 7 7 6 6 6 6 6 6 5 5 7 8 8 8 7 6
0 0 0 0 0 0 0 0 0 0 0 0 0 1 1 2 3 3 3 3 3 3 3 3 4 5 4 4 5 5 5 5 6 7 7 7 6 5 7 9 9 8 6 6
0 0 0 0 0 0 0 0 0 0 0 0 1 1 2 2 3 3 3 3 3 3 2 2 3 4 5 6 8 7 5 5 7 8 8 8 6 5 6 8 8 7 5 5
0 0 0 0 0 0 0 0 0 0 1 1 1 1 1 2 2 2 2 2 2 3 3 3 3 5 6 10 14 10 5 6 8 9 9 8 6 5 5 6 6 5 5 4
0 0 0 0 0 0 0 0 0 1 1 1 1 1 1 2 2 2 1 2 3 3 3 3 3 5 8 13 16 10 6 7 9 9 8 7 6 5 5 5 4 4 4 5
0 0 0 0 0 0 0 0 0 1 1 1 1 1 2 3 3 3 2 2 3 5 4 3 3 4 8 14 13 7 4 6 8 8 7 6 5 4 4 4 4 4 4 5
0 0 0 0 0 0 0 0 0 0 1 1 1 2 3 3 2 3 4 3 4 6 5 3 3 3 7 10 8 4 2 3 4 5 5 5 4 3 3 3 3 4 4 5
0 0 0 0 0 0 0 0 0 0 1 1 1 1 2 2 2 2 3 4 5 7 6 4 3 4 5 5 4 3 2 2 2 2 3 3 3 2 2 3 3 4 5 6
1 1 0 0 0 0 0 0 0 0 1 1 1 1 1 1 1 2 2 3 4 5 5 4 4 5 5 4 4 2 2 2 2 2 2 2 2 2 2 3 3 4 5 5
1 1 0 0 0 0 0 0 0 0 1 1 1 1 1 1 2 2 3 3 3 4 3 3 3 4 4 4 3 2 2 2 2 2 2 2 2 2 2 2 3 3 4 5
1 1 0 0 0 0 0 0 0 1 1 1 1 1 2 2 2 3 3 2 2 2 2 2 2 2 3 3 3 2 2 2 2 2 1 1 2 1 1 1 1 2 3 3
1 1 1 1 1 0 0 0 1 1 1 1 1 1 2 2 3 3 2 2 2 2 2 2 2 2 2 2 3 2 2 2 2 1 1 1 1 1 1 1 1 1 1 1
0 1 1 1 1 1 1 1 0 1 1 1 1 1 2 3 3 2 2 2 2 2 3 3 3 3 3 3 2 2 2 2 1 1 1 1 1 1 1 1 1 1 1 1
0 1 1 1 1 1 1 1 0 0 0 1 1 2 3 3 3 2 2 2 2 3 3 3 3 3 3 2 2 2 2 2 1 1 1 1 1 1 1 1 1 1 1 1
1 1 1 1 1 1 1 1 1 1 1 1 1 2 3 3 2 2 2 2 2 2 2 2 2 2 2 2 2 2 2 2 1 1 1 1 1 1 1 2 2 2 1 1
1 1 1 1 1 1 1 1 1 1 1 1 2 2 2 2 2 1 1 1 2 1 1 1 1 1 2 2 1 1 1 2 2 1 1 1 2 2 2 2 3 2 2 1
1 1 1 1 1 1 1 1 1 1 1 1 2 2 2 2 2 1 1 1 1 1 1 1 1 1 2 2 1 1 1 2 2 1 1 1 2 2 2 3 2 2 2 1
1 1 1 1 1 1 1 1 1 0 0 1 1 2 2 2 1 1 1 1 1 1 1 1 1 1 1 1 1 1 1 1 2 2 1 1 1 2 2 2 2 2 1 1
1 1 1 1 0 0 1 1 1 0 0 1 1 1 1 1 1 1 1 1 1 1 1 1 1 1 1 1 1 1 1 1 2 2 1 1 1 1 1 2 1 1 1 1
0 1 1 1 0 0 1 1 1 0 0 0 1 1 1 1 1 1 1 1 1 1 1 1 1 1 1 1 1 1 1 1 2 2 1 1 1 1 1 1 1 1 1 0
Wind_Speed
9 9 6 5 6 8 9 8 8 7 3 5 5 3 3 4 4 2 1 3 5 6 7 7 6 6 6 5 5 5 4 3 2 1 1 1 1 1 1 1 1 1 1 2
7 6 4 5 5 7 7 7 8 6 4 5 6 6 5 4 4 4 3 3 4 6 7 7 6 5 5 5 5 4 4 3 2 1 0 0 0 1 1 1 1 1 1 2
7 2 3 6 7 5 7 8 8 7 7 8 8 8 6 5 3 3 4 4 4 4 6 7 6 6 6 5 4 3 4 3 2 1 0 0 0 0 0 1 1 1 0 0
5 3 3 7 7 6 7 9 9 10 9 7 8 7 3 3 4 4 3 3 3 4 5 5 5 5 5 4 4 4 3 3 2 1 0 0 0 1 0 0 1 1 0 0
5 3 5 7 7 8 9 11 11 11 11 10 9 7 1 3 4 3 3 2 3 3 4 5 5 5 5 4 4 4 4 3 2 1 1 0 1 1 1 1 1 0 0 0
7 3 3 6 7 7 9 11 12 11 9 9 5 5 1 2 2 2 3 3 4 3 4 5 5 5 4 4 4 5 4 3 2 2 1 0 1 1 1 1 0 1 0 0
7 4 2 4 7 6 8 8 6 6 4 5 6 4 2 4 4 3 4 4 4 3 4 4 4 4 4 4 4 4 4 3 3 2 1 0 0 1 0 1 1 0 0 0
8 5 4 5 5 6 7 7 4 4 7 8 7 1 4 6 7 6 7 7 5 4 3 2 4 4 3 3 3 3 3 3 2 2 2 0 1 1 0 0 1 0 0 1
8 9 8 8 7 6 6 5 6 7 10 9 4 1 5 7 8 7 6 5 4 3 2 2 3 3 3 4 3 3 3 3 3 2 2 1 1 1 1 1 1 1 1 0
8 11 10 9 9 6 5 6 4 5 6 7 7 4 3 5 5 5 4 4 4 4 3 3 2 3 3 3 3 3 2 2 2 2 1 1 1 0 1 1 1 1 1 1
8 8 9 9 8 9 6 5 5 5 6 7 8 4 4 5 5 5 5 5 4 4 3 2 2 3 3 3 3 3 3 2 2 1 1 1 1 1 1 1 1 1 1 2
8 7 8 10 9 8 5 7 7 6 7 7 8 4 4 6 6 6 5 4 3 3 2 2 2 1 2 3 2 2 2 2 2 1 1 1 1 1 1 1 1 1 1 2
8 6 8 7 4 5 8 8 9 8 7 7 7 4 4 6 7 7 5 4 4 3 2 1 0 1 2 2 2 1 1 2 2 1 1 0 1 1 1 1 1 1 2 2
5 6 7 9 11 12 11 11 10 9 8 8 8 7 5 7 7 6 4 4 5 3 2 1 1 1 2 2 2 1 1 1 1 0 0 1 2 2 2 1 1 1 1 2
5 7 9 12 14 13 13 12 11 9 8 9 8 7 5 5 5 5 4 4 5 4 3 3 2 1 1 1 1 1 1 1 0 1 1 1 2 2 1 1 1 1 2 2
4 8 11 13 13 12 11 10 9 8 8 8 8 5 5 5 5 4 4 4 4 4 4 4 3 1 0 0 1 1 0 1 1 2 3 2 1 2 2 1 0 0 1 1
5 8 11 10 12 12 8 7 6 6 8 8 7 6 6 6 6 5 4 4 4 4 3 3 3 1 1 1 1 0 1 1 2 2 3 1 1 2 2 1 1 1 1 1
7 7 7 9 10 8 4 7 7 7 7 8 7 6 6 6 5 3 2 3 4 4 2 2 2 1 0 1 1 1 2 2 3 2 2 1 2 2 1 0 1 1 1 1
5 6 7 7 8 8 4 5 7 7 6 7 8 9 9 9 5 3 5 5 5 3 2 1 1 1 0 1 1 1 2 2 3 2 2 2 2 2 1 1 1 1 1 2
4 4 6 8 10 7 5 6 7 7 3 7 9 9 10 9 7 5 6 6 4 3 2 1 1 0 0 0 1 2 2 2 3 2 1 1 2 2 1 1 2 2 2 3
4 5 7 10 9 5 6 9 8 5 5 8 8 8 8 7 7 5 6 5 4 3 2 2 1 0 1 1 1 2 2 3 2 1 1 0 1 2 2 1 2 3 3 2
6 5 6 7 8 4 9 8 6 5 5 6 6 6 7 7 5 5 5 4 3 3 2 2 1 0 0 1 1 2 2 2 1 1 1 1 1 2 1 1 2 2 2 2
4 4 5 4 4 5 6 6 5 4 6 6 5 6 6 6 4 4 3 3 3 2 2 1 0 0 1 1 2 3 3 2 2 1 1 1 1 1 2 2 2 2 2 2
6 6 6 6 7 8 8 8 7 7 8 7 5 5 6 6 5 4 3 2 2 2 2 1 1 1 1 2 3 3 3 2 2 1 1 1 1 2 2 2 2 1 1 1
11 9 8 9 9 10 8 9 10 10 9 9 6 5 6 5 5 4 3 2 2 2 2 2 2 2 3 3 3 3 2 2 1 2 2 2 2 2 2 2 1 1 1 1
9 8 8 8 8 8 10 11 11 11 10 9 8 7 6 5 4 4 3 2 2 2 2 2 2 3 3 3 3 3 2 2 1 1 2 2 2 2 2 2 1 1 1 1
Wind_Direction
235 240 245 242 237 261 282 289 292 283 247 247 250 237 232 211 193 193 185 130 132 116 115 114 117 120 121 120 115 113 109 104 103 124 180 191 191 187 153 115 83 70 32 335
241 240 273 284 280 281 289 290 287 293 300 281 265 247 232 219 195 170 144 115 115 127 123 125 130 131 129 126 123 123 118 115 108 87 184 214 232 204 132 92 90 60 41 333
278 332 340 304 296 292 292 286 285 289 282 261 262 258 225 181 162 134 115 109 109 128 130 132 137 141 131 130 132 124 115 106 93 58 64 5 217 272 128 167 125 96 71 352
294 339 323 290 289 295 283 290 295 288 278 276 265 273 205 155 117 100 93 97 96 93 109 116 125 129 135 137 135 127 120 117 115 152 147 238 213 240 94 55 103 54 44 50
304 327 305 303 319 320 310 312 296 285 278 274 267 269 182 103 70 87 98 74 78 85 108 116 115 120 129 132 128 124 119 117 116 109 116 163 345 338 354 37 80 251 266 66
306 309 305 311 311 311 305 304 293 281 271 268 290 297 40 114 110 84 92 86 89 91 102 113 117 116 115 121 127 126 126 123 123 131 135 148 0 345 357 7 48 279 149 90
310 281 262 294 313 315 316 318 322 325 292 292 313 309 89 99 100 93 83 82 80 96 99 112 119 118 117 113 119 132 135 142 140 137 113 40 351 295 139 273 215 255 302 96
318 312 342 326 322 311 309 312 316 304 303 296 292 328 97 92 84 73 75 79 76 83 85 103 112 115 123 125 136 131 138 135 136 138 133 104 347 305 356 324 295 275 301 58
328 321 325 316 303 288 288 306 318 299 293 295 310 25 100 71 73 64 57 73 81 83 79 95 106 106 113 120 122 127 116 125 136 147 147 137 96 335 338 333 318 342 356 346
313 308 307 309 291 272 297 319 326 320 315 309 311 337 45 52 58 48 43 32 48 64 60 75 104 109 115 119 109 104 115 117 134 163 188 151 148 271 283 296 330 325 323 329
322 304 302 311 317 325 325 328 346 322 304 314 311 332 57 58 43 44 29 23 29 48 47 54 83 108 117 121 120 118 123 144 147 139 172 171 187 244 249 243 294 287 308 299
345 317 308 304 302 311 319 336 337 319 311 305 302 321 55 51 39 43 31 21 23 56 52 39 53 103 125 121 122 126 147 152 160 165 155 209 226 257 260 266 288 302 297 298
347 326 311 315 318 323 330 327 317 305 293 296 300 315 73 42 41 47 33 12 3 44 48 32 306 139 135 128 134 152 174 166 186 176 135 273 264 273 264 264 288 289 287 289
297 291 297 299 301 307 306 309 312 310 307 312 315 322 22 32 22 15 16 9 354 1 24 5 9 80 118 137 150 169 190 165 218 174 195 270 264 250 240 246 249 254 270 274
318 297 302 299 297 297 299 303 309 315 316 311 317 333 13 17 9 9 8 3 356 353 7 5 3 55 96 139 170 187 193 211 257 281 262 265 277 254 231 241 232 239 274 290
325 304 306 299 301 303 303 310 310 314 318 315 321 343 5 15 12 9 4 352 352 353 3 3 354 5 52 214 240 185 196 270 256 271 277 276 268 276 255 250 222 307 291 316
299 300 301 299 313 309 306 330 335 335 335 340 339 0 8 356 358 9 356 343 346 336 344 351 340 345 341 313 311 235 224 267 273 272 283 296 289 284 277 306 36 322 319 318
272 285 287 292 305 299 324 353 357 346 353 5 9 10 359 347 356 4 15 1 331 318 332 335 334 332 16 5 341 252 235 243 264 266 282 295 304 300 293 294 285 277 293 287
235 274 290 290 291 292 307 6 351 339 347 18 3 357 351 346 334 344 22 2 335 327 345 359 353 345 28 5 321 273 254 238 246 248 261 278 303 313 297 284 285 273 262 270
213 230 268 283 294 301 349 4 352 324 315 12 355 352 347 337 325 342 359 344 338 3 12 357 347 27 192 251 286 278 266 242 248 245 248 283 303 297 278 269 269 269 261 260
267 253 255 269 277 283 9 350 337 322 346 347 344 348 344 337 335 332 340 350 359 3 355 350 346 75 184 208 251 284 278 272 265 252 255 315 299 261 250 253 263 264 258 265
302 300 290 287 280 295 7 350 2 352 334 331 335 341 339 335 343 337 339 350 349 346 348 349 348 6 223 220 237 271 281 276 273 280 278 278 252 265 272 265 272 273 263 263
299 312 304 303 304 332 349 343 344 331 324 325 329 334 332 333 333 334 331 334 339 336 335 330 259 213 266 248 241 263 265 256 253 250 260 245 246 245 250 246 259 263 260 267
310 325 303 296 297 315 323 327 338 335 326 322 324 325 320 317 317 318 312 318 318 313 311 299 249 232 254 254 249 256 249 245 232 210 198 228 249 248 257 262 257 261 282 292
300 304 296 289 295 308 318 329 329 323 320 321 323 317 309 309 309 304 299 305 299 288 286 270 247 238 246 242 246 251 238 212 211 202 209 236 244 238 246 255 289 289 330 298
277 286 288 292 311 310 306 310 312 311 311 314 311 310 307 298 289 287 290 285 276 273 264 250 243 250 244 239 237 224 223 200 176 212 231 246 243 239 234 223 234 256 219 252